Weather History for KMWT - July, 2013

Change the Weather History Date:

Friday, July 19, 2013

  Actual Average (KHOT) Record (KHOT)
Temperature  
Mean Temperature 79 °F -  
Max Temperature 91 °F 96 °F 108 °F (1980)
Min Temperature 69 °F 70 °F 58 °F (1984)
Cooling Degree Days 14    
Growing Degree Days 29 (Base 50)    
Moisture  
Dew Point 70 °F    
Average Humidity 88    
Maximum Humidity 100    
Minimum Humidity 53    
Precipitation  
Precipitation 0.52 in - - ()
Sea Level Pressure  
Sea Level Pressure 29.98 in    
Wind  
Wind Speed 1 mph (WSW)    
Max Wind Speed 7 mph    
Max Gust Speed -    
Visibility 6 miles    
Events Rain    
Averages and records for this station are not official NWS values.
T = Trace of Precipitation, MM = Missing Value Source: NWS Daily Summary

Daily Weather History Graph

Daily Weather History Graph

Search for Another Location

Airport or City:

Trip Planner

Search our weather history database for the weather conditions in past years. The results will help you decide how hot, cold, wet, or windy it might be!

Date:

Astronomy

Jul. 19, 2013 Rise Set
Actual Time 6:15 AM CDT 8:25 PM CDT
Civil Twilight 5:47 AM CDT 8:53 PM CDT
Nautical Twilight 5:12 AM CDT 9:28 PM CDT
Astronomical Twilight 4:34 AM CDT 10:05 PM CDT
Moon 5:28 PM CDT (7/19) 2:56 AM CDT (7/19)
Length of Visible Light 15h 06m
Length of Day
14h 09m
Waxing Gibbous, 87% of the Moon is Illuminated
Jul 19
Waxing Gibbous
Jul 22
Full
Jul 29
Last Quarter
Aug 6
New
Aug 14
First Quarter

Hourly Weather History & Observations

Time (CDT) Temp. Heat Index Dew Point Humidity Pressure Visibility Wind Dir Wind Speed Gust Speed Precip Events Conditions
12:53 AM 71.1 °F - 66.9 °F 87% 30.01 in 10.0 mi Calm Calm - N/A   Clear
1:53 AM 69.1 °F - 66.9 °F 93% 30.01 in 9.0 mi Calm Calm - N/A   Scattered Clouds
2:53 AM 71.1 °F - 66.9 °F 87% 30.01 in 10.0 mi Calm Calm - N/A   Mostly Cloudy
3:53 AM 71.1 °F - 66.9 °F 87% 30.00 in 10.0 mi Calm Calm - N/A   Overcast
4:53 AM 71.1 °F - 66.9 °F 87% 29.99 in 10.0 mi Calm Calm - N/A   Partly Cloudy
5:53 AM 70.0 °F - 66.9 °F 90% 30.00 in 10.0 mi Calm Calm - N/A   Clear
6:53 AM 71.1 °F - 68.0 °F 90% 30.01 in 10.0 mi Calm Calm - N/A   Clear
7:53 AM 73.0 °F - 68.0 °F 84% 30.02 in 10.0 mi Calm Calm - N/A   Overcast
8:53 AM 78.1 °F - 69.1 °F 74% 30.01 in 10.0 mi Calm Calm - N/A   Partly Cloudy
9:53 AM 80.1 °F 82.9 °F 69.1 °F 69% 30.02 in 10.0 mi Calm Calm - N/A   Partly Cloudy
10:53 AM 86.0 °F 90.1 °F 69.1 °F 57% 30.01 in 10.0 mi Calm Calm - N/A   Overcast
11:53 AM 87.1 °F 90.6 °F 68.0 °F 53% 30.00 in 10.0 mi Variable 4.6 mph - N/A   Clear
12:53 PM 89.1 °F 94.1 °F 70.0 °F 53% 29.98 in 10.0 mi SW 3.5 mph - N/A   Scattered Clouds
1:53 PM 86.0 °F 90.7 °F 70.0 °F 59% 29.96 in 7.0 mi Variable 4.6 mph - 0.00 in Rain Light Rain
2:53 PM 75.9 °F - 71.1 °F 85% 29.96 in 10.0 mi South 3.5 mph - 0.06 in Rain Light Rain
3:53 PM 78.1 °F - 71.1 °F 79% 29.94 in 10.0 mi SE 3.5 mph - N/A   Clear
4:53 PM 82.0 °F 85.9 °F 70.0 °F 67% 29.93 in 10.0 mi Calm Calm - N/A   Scattered Clouds
5:29 PM 78.8 °F - 73.4 °F 83% 29.98 in 8.0 mi WNW 3.5 mph - 0.00 in Rain Light Rain
5:33 PM 77.0 °F - 73.4 °F 89% 29.99 in 0.8 mi WNW 6.9 mph - 0.01 in Rain Rain
5:53 PM 73.0 °F - 71.1 °F 93% 29.97 in 2.5 mi Variable 3.5 mph - 0.15 in Rain Light Rain
6:06 PM 71.6 °F - 69.8 °F 94% 29.99 in 0.8 mi NNW 5.8 mph - 0.10 in Rain Heavy Rain
6:18 PM 71.6 °F - 71.6 °F 100% 29.99 in 2.5 mi Calm Calm - 0.24 in Rain Light Rain
6:25 PM 71.6 °F - 71.6 °F 100% 30.00 in 4.0 mi Calm Calm - 0.24 in Rain Light Rain
6:34 PM 71.6 °F - 71.6 °F 100% 30.00 in 2.0 mi Calm Calm - 0.25 in Rain Light Rain
6:44 PM 71.6 °F - 71.6 °F 100% 30.00 in 4.0 mi Calm Calm - 0.25 in   Overcast
6:53 PM 73.0 °F - 72.0 °F 96% 29.97 in 4.0 mi Calm Calm - 0.25 in Rain Light Rain
7:02 PM 73.4 °F - 71.6 °F 94% 29.99 in 2.0 mi Calm Calm - 0.02 in Rain Light Rain
7:12 PM 71.6 °F - 71.6 °F 100% 29.98 in 6.0 mi Calm Calm - 0.03 in   Mostly Cloudy
7:53 PM 72.0 °F - 71.1 °F 97% 29.95 in 3.0 mi Calm Calm - 0.05 in Rain Light Rain
8:53 PM 71.1 °F - 70.0 °F 96% 29.93 in 6.0 mi Calm Calm - 0.01 in   Scattered Clouds
9:08 PM 71.6 °F - 69.8 °F 94% 29.97 in 5.0 mi Calm Calm - N/A   Scattered Clouds
9:53 PM 71.1 °F - 70.0 °F 96% 29.94 in 1.8 mi Calm Calm - N/A   Clear
10:00 PM 69.8 °F - 69.8 °F 100% 29.96 in 1.5 mi Calm Calm - N/A   Partly Cloudy
10:07 PM 69.8 °F - 69.8 °F 100% 29.96 in 0.8 mi Calm Calm - N/A   Mist
10:26 PM 69.8 °F - 69.8 °F 100% 29.96 in 1.2 mi Calm Calm - N/A   Scattered Clouds
10:35 PM 69.8 °F - 69.8 °F 100% 29.96 in 0.8 mi Calm Calm - N/A   Mist
10:53 PM 70.0 °F - 69.1 °F 97% 29.93 in 0.8 mi Calm Calm - N/A   Overcast
11:46 PM 69.8 °F - 69.8 °F 100% 29.97 in 2.5 mi Calm Calm - N/A   Mostly Cloudy
11:53 PM 70.0 °F - 69.1 °F 97% 29.94 in 5.0 mi Calm Calm - N/A   Mostly Cloudy